This is the latest recevied weather packets stored in our database for station/object OE3APM-13. If no packets are shown the sender has not sent any weather packets the latest 1 day(s).
| Time | Temp. | Humidity | Pressure | Rain* | Wind** | Luminosity | Snow |
|---|---|---|---|---|---|---|---|
| 1777994549 | 25.56° C | 31% | 1004.6 hPa | 0 mm | 2.24 m/s, 13° | 346 W/m² | - |
| 1777994250 | 25.56° C | 31% | 1004.7 hPa | 0 mm | 2.24 m/s, 124° | 355 W/m² | - |
| 1777993949 | 25.56° C | 31% | 1004.7 hPa | 0 mm | 2.24 m/s, 124° | 399 W/m² | - |
| 1777993651 | 25.56° C | 32% | 1004.7 hPa | 0 mm | 2.68 m/s, 134° | 441 W/m² | - |
| 1777993350 | 25.56° C | 32% | 1004.8 hPa | 0 mm | 2.68 m/s, 141° | 439 W/m² | - |
| 1777993047 | 25.56° C | 34% | 1004.8 hPa | 0 mm | 3.13 m/s, 132° | 473 W/m² | - |
| 1777992743 | 25.56° C | 33% | 1004.8 hPa | 0 mm | 3.13 m/s, 172° | 468 W/m² | - |
| 1777992443 | 25° C | 36% | 1005 hPa | 0 mm | 3.13 m/s, 54° | 471 W/m² | - |
| 1777992141 | 25° C | 34% | 1004.9 hPa | 0 mm | 3.13 m/s, 88° | 471 W/m² | - |
| 1777991842 | 25° C | 36% | 1005 hPa | 0 mm | 2.68 m/s, 92° | 436 W/m² | - |
| 1777991537 | 25° C | 37% | 1005 hPa | 0 mm | 2.68 m/s, 167° | 483 W/m² | - |
| 1777991236 | 25° C | 37% | 1005.1 hPa | 0 mm | 2.68 m/s, 78° | 531 W/m² | - |
| 1777990935 | 25.56° C | 35% | 1005.2 hPa | 0 mm | 3.13 m/s, 108° | 566 W/m² | - |
| 1777990635 | 25° C | 37% | 1005.3 hPa | 0 mm | 2.68 m/s, 178° | 591 W/m² | - |
| 1777990335 | 25° C | 39% | 1005.3 hPa | 0 mm | 3.13 m/s, 148° | 601 W/m² | - |
| 1777990033 | 25° C | 37% | 1005.5 hPa | 0 mm | 3.58 m/s, 111° | 605 W/m² | - |
| 1777989734 | 25° C | 37% | 1005.6 hPa | 0 mm | 3.58 m/s, 101° | 575 W/m² | - |
| 1777989434 | 24.44° C | 39% | 1005.7 hPa | 0 mm | 3.58 m/s, 113° | 577 W/m² | - |
| 1777988833 | 23.89° C | 39% | 1005.8 hPa | 0 mm | 3.13 m/s, 143° | 710 W/m² | - |
| 1777988534 | 23.89° C | 40% | 1005.8 hPa | 0 mm | 2.68 m/s, 91° | 708 W/m² | - |
| 1777988234 | 23.89° C | 40% | 1005.8 hPa | 0 mm | 3.13 m/s, 10° | 589 W/m² | - |
| 1777987933 | 23.89° C | 41% | 1005.9 hPa | 0 mm | 3.58 m/s, 139° | 311 W/m² | - |
| 1777987634 | 23.89° C | 41% | 1006 hPa | 0 mm | 3.13 m/s, 119° | 306 W/m² | - |
| 1777987323 | 23.89° C | 41% | 1006 hPa | 0 mm | 2.68 m/s, 123° | 334 W/m² | - |
| 1777987017 | 23.89° C | 41% | 1006 hPa | 0 mm | 3.13 m/s, 93° | 352 W/m² | - |
* Rain latest hour (hover to see other rain measurements)
** Current wind speed in m/s (hover to see current wind gust speed)